Location: Bosdarros
(43.2167°N, 0.3667°W)
Time: 12:01:06
(UTC+00:00)

FENGYUN 1C DEB - Pass Details

Date: 30 October 2021
Orbit: 805 x 871 km, 98.8° (Epoch: 26 November)

Event Time Altitude Azimuth Distance (km) Brightness Sun altitude
Exits shadow 19:13:28 74° 75° (ENE) 847 ? -25.6°
Maximum altitude 19:13:29 74° 73° (ENE) 847 ? -25.6°
Drops below altitude 10° 19:18:49 10° 350° (N) 2,419 ? -26.6°
Sets 19:21:11 0° 348° (NNW) 3,364 ? -27.0°
